Regional Weather Roundup
Issued by NWS Cleveland, OH

Home | Current Version | Previous Version | Graphics & Text | Print | Product List | Glossary On
Versions: 1 2 3 4 5 6 7 8 9 10 11 12 13 14 15 16 17 18 19 20 21 22 23 24 25 26 27 28 29 30 31 32 33 34 35 36 37 38 39 40 41 42 43 44 45 46 47 48 49 50
147
ASUS41 KCLE 112010
RWRCLE
OHIO REGIONAL WEATHER ROUNDUP
NATIONAL WEATHER SERVICE WILMINGTON, OH
300 PM EST THU FEB 11 2016

NOTE: "FAIR" INDICATES FEW OR NO CLOUDS BELOW 12,000 FEET WITH NO
SIGNIFICANT WEATHER AND/OR OBSTRUCTIONS TO VISIBILITY.

OHZ001>008-015>018-024>027-034-035-043-044-112100-
   NORTHWEST OHIO

CITY           SKY/WX    TMP DP  RH WIND       PRES   REMARKS
DEFIANCE       PTSUNNY   21   7  54 NW9       30.25S WCI  11
FINDLAY        PTSUNNY   21   5  50 NW15G21   30.23S WCI   8
TOLEDO EXPRESS PTSUNNY   19   9  65 W10       30.24R WCI   7
TOLEDO EXEC    PTSUNNY   22   4  46 W13       30.24S WCI  10
LIMA           CLOUDY    21   7  54 W15G21    30.23R WCI   8
$$

OHZ009>014-019>023-028>033-038-089-112100-
   NORTHEAST OHIO

CITY           SKY/WX    TMP DP  RH WIND       PRES   REMARKS
CLE-HOPKINS    LGT SNOW  17  10  74 W7        30.23R WCI   8
CLE-LAKEFRONT  FLURRIES  20   8  60 W21G29    30.21R WCI   4
CUY CO. ARPT   LGT SNOW  21   9  58 NW12G21   30.18S WCI   9
LORAIN-ELYRIA  LGT SNOW  18  10  71 NW14      30.22R WCI   4
ASHTABULA      PTSUNNY   16   1  51 NW20      30.16R WCI  -1
AKRON-CANTON   PTSUNNY   17   3  54 W16       30.16R WCI   2
WOOSTER        CLOUDY    16   4  59 NW14      30.19R WCI   2
MANSFIELD      PTSUNNY   16   4  59 W10       30.18R WCI   4
YOUNGSTOWN     FLURRIES  18   0  45 W13G26    30.14R WCI   5
$$

OHZ042-051>053-060>062-070>072-077>081-112100-
  SOUTHWEST OHIO

CITY           SKY/WX    TMP DP  RH WIND       PRES   REMARKS
CINC-COVINGTON FAIR      24   4  42 N3        30.26S
CINC-LUNKEN    FAIR      25   7  46 NW6       30.30S WCI  18
HAMILTON       FAIR      24   4  42 CALM      30.29S
DAYTON         PTSUNNY   21   8  57 NW10      30.25R WCI  10
WRIGHT-PAT AFB CLOUDY    23   6  47 NW9       30.25R WCI  13
DAYTON GENERAL PTSUNNY   23   5  46 NW9G17    30.25R WCI  13
WILMINGTON     PTSUNNY   22   6  50 W12       30.23S WCI  10
$$

OHZ036-037-039>041-045>050-054>059-063>069-073>076-082>088-112100-
  CENTRAL AND SOUTHEAST OHIO

CITY           SKY/WX    TMP DP  RH WIND       PRES   REMARKS
COLUMBUS       CLOUDY    19   6  57 NW12      30.24R WCI   7
OSU AIRPORT    CLOUDY    20   7  57 W10       30.23R WCI   9
BOLTON FIELD   CLOUDY    21   7  53 NW12      30.24S WCI   9
RICKENBACK AFB PTSUNNY   21   7  55 W14       30.25R WCI   8
NEWARK         LGT SNOW  20   9  62 NW9       30.23R WCI   9
MARION         CLOUDY    21   4  47 NW10      30.22S WCI  10
LANCASTER      CLOUDY    23   6  48 W9        30.24S WCI  13
ZANESVILLE     CLOUDY    21   8  57 W10       30.22R WCI  10
NEW PHILLY     PTSUNNY   19   2  47 NW12      30.21S WCI   7
$$




USA.gov is the U.S. government's official web portal to all federal, state and local government web resources and services.